Regional Weather Roundup
Issued by NWS Charleston, WV

Home | Current Version | Previous Version | Text Only | Print | Product List | Glossary On
Versions: 1 2 3 4 5 6 7 8 9 10 11 12 13 14 15 16 17 18 19 20 21 22 23 24 25 26 27 28 29 30 31 32 33 34 35 36 37 38 39 40 41 42 43 44 45 46 47 48 49 50
000
ASUS41 KRLX 170110
RWRRLX
West Virginia Regional Weather Roundup
National Weather Service Charleston WV
800 PM EST MON JAN 16 2017

Note: "fair" indicates few or no clouds below 12,000 feet with no
significant weather and/or obstructions to visibility.

WVZ003-170200-
Northern Panhandle of West Virginia

CITY           SKY/WX    TMP DP  RH WIND       PRES   REMARKS
WHEELING       CLOUDY    38  34  85 E7        30.20F
$$

WVZ009-170200-
Northwest West Virginia

CITY           SKY/WX    TMP DP  RH WIND       PRES   REMARKS
PARKERSBURG    CLOUDY    47  45  93 CALM      30.21F
$$

WVZ006-170200-
Western West Virginia

CITY           SKY/WX    TMP DP  RH WIND       PRES   REMARKS
HUNTINGTON     CLOUDY    50  47  89 CALM      30.18S
$$

WVZ015-170200-
West Central West Virginia

CITY           SKY/WX    TMP DP  RH WIND       PRES   REMARKS
CHARLESTON     CLOUDY    52  50  93 CALM      30.19S
$$

WVZ022-031-170200-
North Central West Virginia

CITY           SKY/WX    TMP DP  RH WIND       PRES   REMARKS
CLARKSBURG     MOCLDY    49  47  93 CALM      30.20F FOG
MORGANTOWN     CLOUDY    42  39  89 CALM      30.22F
$$

WVZ025-035-042-045-170200-
Southern West Virginia

CITY           SKY/WX    TMP DP  RH WIND       PRES   REMARKS
BECKLEY        CLOUDY    49  47  93 SE8       30.24R
LOGAN          MOCLDY    57  54  88 CALM      30.20S
BLUEFIELD      CLOUDY    50  45  83 CALM      30.25F
LEWISBURG      FOG       45  45 100 NW5       30.26S VSB 1/2
$$

WVZ047-170200-
Northern Mountains of West Virginia

CITY           SKY/WX    TMP DP  RH WIND       PRES   REMARKS
ELKINS         CLOUDY    48  46  93 CALM      30.23S
$$

WVZ052-170200-
Eastern Panhandle of West Virginia

CITY           SKY/WX    TMP DP  RH WIND       PRES   REMARKS
MARTINSBURG    CLOUDY    38  31  76 N6        30.31S
PETERSBURG     MOCLDY    41  36  81 CALM      30.30R
$$




USA.gov is the U.S. government's official web portal to all federal, state and local government web resources and services.